Location: Miles
(41.4492°N, 81.6087°W)
Time: 15:20:22
(UTC+00:00)

Vanguard 1 Rocket - Pass Details

Date: 20 September 2024
Orbit: 650 x 4218 km, 34.3° (Epoch: 07 October)

Event Time Altitude Azimuth Distance (km) Brightness Sun altitude
Rises 13:52:32 0° 283° (WNW) 7,124 11.4 28.2°
Reaches altitude 10° 13:57:06 10° 277° (W) 6,481 11.3 28.9°
Maximum altitude 14:17:51 44° 215° (SW) 5,123 11.5 32.3°
Drops below altitude 10° 14:40:10 10° 153° (SSE) 6,852 12.9 35.7°
Sets 14:45:19 0° 147° (SSE) 7,533 13.0 36.5°
